Location: Arpaise
(41.0333°N, 14.7333°E)
Time: 15:47:28
(UTC+00:00)

Cosmos 1603 - Pass Details

Date: 05 July 2020
Orbit: 830 x 861 km, 71.0° (Epoch: 10 August)

Event Time Altitude Azimuth Distance (km) Brightness Sun altitude
Exits shadow 23:36:03 73° 162° (SSE) 885 3.5 -25.9°
Maximum altitude 23:36:30 79° 112° (ESE) 865 3.6 -25.9°
Drops below altitude 10° 23:42:13 10° 26° (NNE) 2,486 7.1 -25.7°
Sets 23:44:41 0° 25° (NNE) 3,430 8.1 -25.7°
